Regional Weather Roundup
Issued by NWS

Home | Current Version | Previous Version | Text Only | Print | Product List | Glossary On
Versions: 1 2 3 4 5 6 7 8 9 10 11 12 13 14 15 16 17 18 19 20 21 22 23 24 25 26 27 28 29 30 31 32 33 34 35 36 37 38 39 40 41 42 43 44 45 46 47 48 49 50
000
ASUS44 KMEG 241010
RWRTN
TENNESSEE HOURLY STATE WEATHER ROUNDUP
NATIONAL WEATHER SERVICE MEMPHIS TN
500 AM CDT SUN JUL 24 2016

TNZ002-004-019-021-049-052-054-088>092-241100-
WEST TENNESSEE

CITY           SKY/WX    TMP DP  RH WIND       PRES   REMARKS
MEMPHIS INTL   TSTM      76  73  91 SE9       29.96R FOG
NWS MEMPHIS      N/A     76 N/A N/A MISG        N/A
JACKSON        PTCLDY    75  75 100 CALM      29.96S
DYERSBURG      PTCLDY    75  73  94 MISG      29.96S
UNION CITY     PTCLDY    73  73 100 CALM      29.95S
PARIS          CLEAR     72  70  94 CALM      29.98R
LEXINGTON      CLOUDY    73  73 100 CALM      29.97S VSB 1/4
$$

TNZ008-025-027-028-033-062-065-066-241100-
NORTH MIDDLE TENNESSEE

CITY           SKY/WX    TMP DP  RH WIND       PRES   REMARKS
NASHVILLE      MOCLDY    73  69  87 SE3       30.00R
CLARKSVILLE    CLEAR     73  71  93 SE3       29.97S
SMYRNA         CLEAR     72  71  96 CALM      30.02R
COOKEVILLE     CLEAR     70  70 100 CALM      30.03R
CROSSVILLE     CLEAR     68  67  96 CALM      30.09R
$$

TNZ061-075-076-078-094-096-097-241100-
SOUTH MIDDLE TENNESSEE

CITY           SKY/WX    TMP DP  RH WIND       PRES   REMARKS
FAYETTEVILLE   CLEAR     72  72 100 S3        30.03R
TULLAHOMA      CLEAR     72  70  94 CALM      30.04R
WINCHESTER     CLEAR     72  70  94 CALM      30.03R
MCMINNVILLE    CLOUDY    72  72 100 CALM      30.03S VSB 3/4
COLUMBIA       CLEAR    N/A N/A N/A CALM      29.99R
SHELBYVILLE    CLEAR     73  73 100 CALM      30.02R
$$

TNZ017-018-042-046-047-241100-
NORTHEAST TENNESSEE

CITY           SKY/WX    TMP DP  RH WIND       PRES   REMARKS
TRI CITIES     MOCLDY    68  66  93 CALM      30.08R
ELIZABETHTON   CLEAR     70  68  94 NE3       30.08R
$$

TNZ012-013-036-069-073-074-241100-
CENTRAL EAST TENNESSEE

CITY           SKY/WX    TMP DP  RH WIND       PRES   REMARKS
KNOXVILLE      NOT AVBL
OAK RIDGE      CLOUDY    74  71  91 CALM      30.06R
GATLINBURG     CLEAR     66  66 100 CALM      30.05R
MORRISTOWN     MOCLDY    72  70  94 CALM      30.06R
$$

TNZ083-085-099-241100-
SOUTHEAST TENNESSEE

CITY           SKY/WX    TMP DP  RH WIND       PRES   REMARKS
CHATTANOOGA    PTCLDY    74  71  91 CALM      30.03R
$$

SKY/WX REPORTED AS FAIR MEANS FEW OR NO CLOUDS BELOW
12 THOUSAND FEET.





USA.gov is the U.S. government's official web portal to all federal, state and local government web resources and services.